Regional Weather Roundup
Issued by NWS Green Bay, WI

Home | Current Version | Previous Version | Graphics & Text | Print | Product List | Glossary Off
Versions: 1 2 3 4 5 6 7 8 9 10 11 12 13 14 15 16 17 18 19 20 21 22 23 24 25 26 27 28 29 30 31 32 33 34 35 36 37 38 39 40 41 42 43 44 45 46 47 48 49 50

119
ASUS43 KGRB 031200
RWRGRB

NORTH-CENTRAL AND NORTHEAST WISCONSIN REGIONAL WEATHER ROUNDUP
NATIONAL WEATHER SERVICE GREEN BAY WI
600 AM CST SAT DEC 03 2016

WIZ005-009-010>012-018-019-031300-
NORTH CENTRAL WISCONSIN

CITY           SKY/WX    TMP DP  RH WIND       PRES   REMARKS
IRONWOOD       CLOUDY    28  26  92 SW5       30.24S
MANITOWISH WTR NOT AVBL
ARBOR VITAE    NOT AVBL
EAGLE RIVER    CLOUDY    28  28 100 CALM      30.22S
LAND O LAKES   CLOUDY    28  26  91 SW3       30.23R
RHINELANDER    CLOUDY    27  24  89 W7        30.24R
PHILLIPS       CLOUDY    26  26  98 SW5       30.24S
ANTIGO         NOT AVBL
TOMAHAWK       NOT AVBL
MERRILL        CLOUDY    27  23  87 W3        30.27F
$$

WIZ013-073-031300-
NORTHEAST WISCONSIN

CITY           SKY/WX    TMP DP  RH WIND       PRES   REMARKS
IRON MOUNTAIN  CLOUDY    32  26  78 W3        30.23R
MARINETTE      CLOUDY    33  28  81 W3        30.28R
OCONTO         CLOUDY    32  27  80 W8        30.28R
$$

WIZ017-030-035>037-045-031300-
CENTRAL WISCONSIN

CITY           SKY/WX    TMP DP  RH WIND       PRES   REMARKS
MEDFORD        NOT AVBL
WAUSAU         CLOUDY    28  22  78 W5        30.27S
MOSINEE        CLOUDY    28  25  86 W10       30.29R
MARSHFIELD     CLOUDY    29  22  75 SW5       30.27R
WISC RAPIDS    CLOUDY    30  22  72 W6        30.31R
STEVENS POINT  NOT AVBL
WAUPACA        CLOUDY    32  25  73 CALM      30.31R
SHAWANO        CLOUDY    33  26  74 SW5       30.29S
CLINTONVILLE   CLOUDY    32  23  69 W6        30.30R
WAUTOMA        CLOUDY    30  25  81 W9        30.31
$$

WIZ038-039-048-051-031300-
FOX VALLEY

CITY           SKY/WX    TMP DP  RH WIND       PRES   REMARKS
NWS GREEN BAY  CLOUDY    34  27  75 W9        30.29R
APPLETON       CLOUDY    30  21  69 W7        30.29R
OSHKOSH        CLOUDY    31  23  72 W3        30.30R
FOND DU LAC    CLOUDY    31  22  69 NW7       30.31R
$$

WIZ022-050-052-031300-
EAST CENTRAL WISCONSIN

CITY           SKY/WX    TMP DP  RH WIND       PRES   REMARKS
EPHRAIM        CLOUDY    34  31  87 NW5       30.24S
WASHINGTON ISL CLOUDY    35  30  82 NW5       30.25R
STURGEON BAY   CLOUDY    34  29  82 W5        30.28R
MANITOWOC      NOT AVBL
SHEBOYGAN      CLOUDY    31  24  75 W7        30.31R
$$

LMZ563-521-522-541>543-031300-
LAKESHORE

STATION/POSITION TIME  TEMP    WIND        PRES    VSBY  WAVE
                       AIR SEA DIR/SP/G                  HT/PER
                 (UTC) (F)     (DEG/KT/KT) (MB)    (MI)  (FT/S)
SHEBOYGAN LKSHOR 1100   32     250/ 10/ 12 1026.3R
KEWAUNEE LKSHORE 1130   33     270/  8/ 10 1024.6R
ALGOMA MARINA    1121          310/  5/  6   N/A
NORTHPORT PIER   1140   37     320/  8/ 12 1024.4R
SISTER BAY LKSHO 1108   37     340/ 13/ 16   N/A
CHAMBERS ISLAND  1140   36     300/  6/ 11 1024.0S
MENOMINEE LKSHOR 1130   34     240/  4/  7 1024.0R
$$




USA.gov is the U.S. government's official web portal to all federal, state and local government web resources and services.